Date String (YYYY-MM-DD hh:mm:ss) UTC,Instrument flags,Ambient pressure (hPa),Sample flow (lpm),Bypass flow (lpm),Sample temperature (°C),Ambient temperature (°C),ASC tube jacket temperature (°C),LED temperature (°C),Box temperature (°C),Sample RH (%),Span deviation,Mass concentration (μg/m³),Mass concentration (μg/m³),Mass concentration (μg/m³)
DateTimeUTC,F1_M11,P_M11,Q1_M11,Q2_M11,T1_M11,T2_M11,T3_M11,T4_M11,T5_M11,U1_M11,ZSPAN_M11,X0_M11,X2_M11,X1_M11
2021-10-01 11:00:00,,0831.0,4.99,0.00,28.7,27.7,00.0,37.9,30.4,19.1,-000.5,0007.62,0004.22,0003.75
2021-10-01 11:01:00,,0831.0,5.02,0.00,28.7,27.7,00.0,37.8,30.4,19.1,-000.7,0007.61,0004.21,0003.75
2021-10-01 11:02:00,,0831.1,5.00,0.00,28.6,27.7,00.0,37.8,30.4,19.2,-000.5,0007.73,0004.21,0003.75
2021-10-01 11:03:00,,0831.0,4.99,0.00,28.6,27.7,00.0,37.8,30.4,19.2,-000.0,0007.91,0004.21,0003.75
2021-10-01 11:04:00,,0831.0,4.99,0.00,28.6,27.6,00.0,37.8,30.4,19.3,0000.2,0007.89,0004.21,0003.74
2021-10-01 11:05:00,,0831.0,5.00,0.00,28.6,27.6,00.0,37.8,30.4,19.3,0000.2,0007.92,0004.23,0003.72
2021-10-01 11:06:00,,0831.0,5.01,0.00,28.6,27.6,00.0,37.8,30.4,19.3,0000.7,0007.95,0004.24,0003.73
2021-10-01 11:07:00,,0831.0,4.99,0.00,28.6,27.6,00.0,37.8,30.4,19.3,0000.7,0008.14,0004.22,0003.70
2021-10-01 11:08:00,,0831.0,4.99,0.00,28.6,27.6,00.0,37.8,30.4,19.3,0000.3,0008.55,0004.23,0003.70
2021-10-01 11:09:00,,0831.0,5.00,0.00,28.6,27.6,00.0,37.8,30.4,19.3,0000.4,0008.49,0004.23,0003.70
2021-10-01 11:10:00,,0831.0,5.01,0.00,28.6,27.6,00.0,37.8,30.4,19.3,0000.3,0008.36,0004.20,0003.69
2021-10-01 11:11:00,,0831.1,4.99,0.00,28.6,27.6,00.0,37.8,30.4,19.3,0000.0,0008.32,0004.18,0003.68
2021-10-01 11:12:00,,0831.1,4.98,0.00,28.6,27.6,00.0,37.8,30.3,19.4,0000.0,0008.27,0004.18,0003.67
2021-10-01 11:13:00,,0831.1,4.99,0.00,28.6,27.6,00.0,37.8,30.3,19.4,0000.0,0008.30,0004.20,0003.67
2021-10-01 11:14:00,,0831.1,5.00,0.00,28.6,27.6,00.0,37.8,30.4,19.4,0000.1,0008.54,0004.21,0003.68
2021-10-01 11:15:00,,0831.2,5.01,0.00,28.6,27.6,00.0,37.8,30.4,19.4,0001.0,0008.78,0004.24,0003.68
2021-10-01 11:16:00,,0831.1,5.00,0.00,28.6,27.6,00.0,37.8,30.3,19.4,0000.7,0008.95,0004.25,0003.70
2021-10-01 11:17:00,,0831.2,4.99,0.00,28.6,27.6,00.0,37.7,30.3,19.4,0000.4,0008.98,0004.27,0003.71
2021-10-01 11:18:00,,0831.1,4.99,0.00,28.5,27.5,00.0,37.7,30.3,19.5,0000.6,0008.71,0004.30,0003.73
2021-10-01 11:19:00,,0831.1,5.00,0.00,28.5,27.5,00.0,37.7,30.3,19.5,0000.7,0008.42,0004.31,0003.73
2021-10-01 11:20:00,,0831.1,5.00,0.00,28.5,27.5,00.0,37.7,30.3,19.5,0000.7,0008.54,0004.32,0003.72
2021-10-01 11:21:00,,0831.1,5.00,0.00,28.5,27.5,00.0,37.7,30.2,19.6,0001.0,0008.51,0004.35,0003.73
2021-10-01 11:22:00,,0831.1,4.99,0.00,28.5,27.5,00.0,37.7,30.3,19.6,0001.1,0008.53,0004.36,0003.73
2021-10-01 11:23:00,,0831.1,5.00,0.00,28.5,27.5,00.0,37.7,30.3,19.6,0000.9,0009.28,0004.37,0003.74
2021-10-01 11:24:00,,0831.1,5.01,0.00,28.5,27.5,00.0,37.7,30.2,19.6,0001.2,0009.40,0004.35,0003.75
2021-10-01 11:25:00,,0831.1,4.99,0.00,28.5,27.5,00.0,37.7,30.3,19.6,0001.0,0008.99,0004.34,0003.75
2021-10-01 11:26:00,,0831.2,5.00,0.00,28.5,27.5,00.0,37.7,30.2,19.6,0001.3,0008.83,0004.33,0003.75
2021-10-01 11:27:00,,0831.2,5.01,0.00,28.5,27.5,00.0,37.7,30.2,19.7,0001.6,0008.74,0004.31,0003.74
2021-10-01 11:28:00,,0831.2,5.01,0.00,28.5,27.5,00.0,37.6,30.2,19.7,0001.6,0009.12,0004.29,0003.74
2021-10-01 11:29:00,,0831.1,5.00,0.00,28.5,27.5,00.0,37.6,30.2,19.8,0001.5,0009.35,0004.25,0003.74
2021-10-01 11:30:00,,0831.2,5.00,0.00,28.4,27.4,00.0,37.6,30.2,19.8,0001.4,0009.89,0004.24,0003.74
2021-10-01 11:31:00,,0831.2,4.99,0.00,28.4,27.4,00.0,37.6,30.2,19.9,0001.8,0009.84,0004.25,0003.74
2021-10-01 11:32:00,,0831.2,5.00,0.00,28.4,27.4,00.0,37.6,30.1,20.0,0001.4,0009.95,0004.28,0003.74
2021-10-01 11:33:00,,0831.2,5.00,0.00,28.4,27.4,00.0,37.6,30.2,20.3,0001.1,0010.04,0004.29,0003.74
2021-10-01 11:34:00,,0831.2,5.01,0.00,28.4,27.4,00.0,37.6,30.2,20.6,0001.9,0009.63,0004.33,0003.76
2021-10-01 11:35:00,,0831.2,5.00,0.00,28.4,27.4,00.0,37.6,30.1,20.9,0001.7,0010.69,0004.41,0003.79
2021-10-01 11:36:00,,0831.2,5.00,0.00,28.4,27.4,00.0,37.6,30.1,21.0,0001.3,0011.21,0004.48,0003.83
2021-10-01 11:37:00,,0831.2,4.99,0.00,28.4,27.4,00.0,37.6,30.1,21.2,0000.9,0011.25,0004.54,0003.88
2021-10-01 11:38:00,,0831.3,5.00,0.00,28.3,27.4,00.0,37.5,30.1,21.2,0000.9,0011.23,0004.59,0003.92
2021-10-01 11:39:00,,0831.2,5.00,0.00,28.3,27.4,00.0,37.5,30.0,21.1,0001.3,0010.82,0004.61,0003.94
2021-10-01 11:40:00,,0831.2,5.01,0.00,28.3,27.3,00.0,37.5,30.0,21.0,0001.6,0011.09,0004.65,0003.97
2021-10-01 11:41:00,,0831.3,5.01,0.00,28.2,27.3,00.0,37.5,30.0,20.9,0002.0,0010.65,0004.65,0003.98
2021-10-01 11:42:00,,0831.3,4.99,0.00,28.2,27.2,00.0,37.5,30.0,20.9,0001.7,0010.65,0004.65,0004.00
2021-10-01 11:43:00,,0831.3,5.01,0.00,28.2,27.3,00.0,37.5,30.0,20.8,0001.7,0010.97,0004.64,0004.02
2021-10-01 11:44:00,,0831.3,5.01,0.00,28.2,27.3,00.0,37.4,30.0,20.8,0001.8,0011.12,0004.64,0004.02
2021-10-01 11:45:00,,0831.4,5.01,0.00,28.2,27.3,00.0,37.4,30.0,20.8,0001.4,0011.24,0004.62,0004.01
2021-10-01 11:46:00,,0831.4,5.00,0.00,28.3,27.3,00.0,37.4,30.0,20.8,0000.9,0010.15,0004.59,0004.00
2021-10-01 11:47:00,,0831.4,5.00,0.00,28.3,27.3,00.0,37.4,30.0,20.6,0000.7,0009.63,0004.55,0003.99
2021-10-01 11:48:00,,0831.3,5.00,0.00,28.3,27.3,00.0,37.4,30.0,20.5,0000.7,0009.51,0004.48,0003.96
2021-10-01 11:49:00,,0831.3,5.01,0.00,28.3,27.4,00.0,37.4,30.1,20.4,0000.3,0009.40,0004.41,0003.93
2021-10-01 11:50:00,,0831.3,5.01,0.00,28.3,27.4,00.0,37.4,30.1,20.3,-000.0,0009.68,0004.38,0003.92
2021-10-01 11:51:00,,0831.2,5.00,0.00,28.3,27.4,00.0,37.4,30.1,20.3,-000.3,0009.22,0004.40,0003.92
2021-10-01 11:52:00,,0831.2,5.00,0.00,28.3,27.4,00.0,37.4,30.1,20.3,-000.6,0008.99,0004.37,0003.92
2021-10-01 11:53:00,,0831.2,5.01,0.00,28.3,27.4,00.0,37.5,30.1,20.4,-000.5,0009.02,0004.37,0003.91
2021-10-01 11:54:00,,0831.3,4.98,0.00,28.3,27.4,00.0,37.5,30.1,20.4,-000.3,0009.18,0004.35,0003.90
2021-10-01 11:55:00,,0831.3,5.00,0.00,28.3,27.4,00.0,37.5,30.1,20.4,-000.4,0008.83,0004.33,0003.90
2021-10-01 11:56:00,,0831.3,5.01,0.00,28.3,27.4,00.0,37.5,30.1,20.4,-000.8,0009.09,0004.31,0003.89
2021-10-01 11:57:00,,0831.4,5.00,0.00,28.3,27.4,00.0,37.5,30.1,20.3,-001.0,0008.75,0004.29,0003.89
2021-10-01 11:58:00,,0831.4,4.99,0.00,28.3,27.4,00.0,37.5,30.1,20.2,-000.5,0008.81,0004.26,0003.88
2021-10-01 11:59:00,,0831.4,5.00,0.00,28.4,27.4,00.0,37.5,30.1,20.2,0000.0,0008.80,0004.25,0003.88
